Calumet, MI

8:25 AM EST on February 22, 2017 (GMT -0500)
Houghton County Memorial

Weather History for KCMX - October, 2013

Change the Weather History Date:

Monday, October 21, 2013

  Actual Average Record
Temperature  
Mean Temperature 34 °F -  
Max Temperature 39 °F 48 °F 80 °F (1953)
Min Temperature 30 °F 35 °F 25 °F (1969)
Degree Days  
Heating Degree Days 32    
Moisture  
Dew Point 30 °F    
Average Humidity 85    
Maximum Humidity 93    
Minimum Humidity 59    
Precipitation  
Precipitation 0.43 in - - ()
Sea Level Pressure  
Sea Level Pressure 29.64 in    
Wind  
Wind Speed 12 mph (West)    
Max Wind Speed 24 mph    
Max Gust Speed 36 mph    
Visibility 6 miles    
Events Fog , Rain , Snow    
Averages and records for this station are not official NWS values.
T = Trace of Precipitation, MM = Missing Value Source: NWS Daily Summary

Daily Weather History Graph

Daily Weather History Graph

Search for Another Location

Airport or City:

Trip Planner

Search our weather history database for the weather conditions in past years. The results will help you decide how hot, cold, wet, or windy it might be!

Date:

Astronomy

Oct. 21, 2013 Rise Set
Actual Time 8:21 AM EDT 6:55 PM EDT
Civil Twilight 7:50 AM EDT 7:26 PM EDT
Nautical Twilight 7:14 AM EDT 8:01 PM EDT
Astronomical Twilight 6:39 AM EDT 8:36 PM EDT
Moon 8:37 PM EDT (10/21) 11:05 AM EDT (10/21)
Length of Visible Light 11h 36m
Length of Day
10h 33m
Waning Gibbous, 93% of the Moon is Illuminated
Oct 21
Waning Gibbous
Oct 26
Last Quarter
Nov 3
New
Nov 10
First Quarter
Nov 17
Full

Hourly Weather History & Observations

Time (EDT) Temp. Windchill Dew Point Humidity Pressure Visibility Wind Dir Wind Speed Gust Speed Precip Events Conditions
12:53 AM 37.9 °F 33.5 °F 34.0 °F 86% 29.67 in 9.0 mi WNW 5.8 mph - 0.01 in Rain Light Rain
1:01 AM 37.4 °F 32.8 °F 33.8 °F 87% 29.64 in 7.0 mi WNW 5.8 mph - 0.01 in Rain Light Rain
1:21 AM 37.4 °F 32.1 °F 35.6 °F 93% 29.64 in 9.0 mi WNW 6.9 mph - 0.01 in Rain Light Rain
1:48 AM 37.4 °F 31.4 °F 35.6 °F 93% 29.63 in 10.0 mi NW 8.1 mph - 0.02 in Rain Light Rain
1:53 AM 37.9 °F 33.5 °F 35.1 °F 89% 29.66 in 9.0 mi NW 5.8 mph - 0.02 in Rain Light Rain
2:18 AM 37.4 °F 32.1 °F 35.6 °F 93% 29.63 in 10.0 mi WNW 6.9 mph - 0.01 in Rain Light Rain
2:30 AM 37.4 °F 32.1 °F 35.6 °F 93% 29.63 in 10.0 mi WNW 6.9 mph - 0.01 in Rain Light Rain
2:53 AM 37.9 °F 31.5 °F 35.1 °F 89% 29.65 in 10.0 mi WNW 9.2 mph - 0.01 in Rain Light Rain
3:14 AM 37.4 °F 31.4 °F 35.6 °F 93% 29.63 in 10.0 mi WNW 8.1 mph - 0.00 in Rain Light Rain
3:35 AM 37.4 °F 30.8 °F 35.6 °F 93% 29.63 in 10.0 mi West 9.2 mph - 0.00 in Rain Light Rain
3:53 AM 37.9 °F 30.9 °F 35.1 °F 89% 29.65 in 10.0 mi WNW 10.4 mph - 0.01 in Rain Light Rain
4:38 AM 37.4 °F 29.8 °F 33.8 °F 87% 29.62 in 9.0 mi NW 11.5 mph - 0.02 in Rain Light Rain
4:53 AM 37.0 °F 28.9 °F 34.0 °F 89% 29.65 in 6.0 mi NW 12.7 mph - 0.03 in Rain Light Rain
5:53 AM 37.0 °F 27.7 °F 34.0 °F 89% 29.65 in 6.0 mi WNW 16.1 mph - 0.06 in Rain Light Rain
6:41 AM 37.4 °F 31.4 °F 35.6 °F 93% 29.62 in 10.0 mi West 8.1 mph - 0.01 in   Overcast
6:53 AM 37.9 °F 29.6 °F 33.1 °F 83% 29.65 in 10.0 mi NW 13.8 mph - 0.01 in   Scattered Clouds
7:12 AM 35.6 °F 25.9 °F 32.0 °F 87% 29.63 in 3.0 mi NW 16.1 mph - 0.03 in Rain Rain
7:31 AM 35.6 °F 27.1 °F 32.0 °F 87% 29.63 in 10.0 mi WNW 12.7 mph - 0.03 in   Scattered Clouds
7:53 AM 37.0 °F 28.9 °F 33.1 °F 86% 29.66 in 7.0 mi WNW 12.7 mph - 0.04 in Rain Light Rain
8:06 AM 35.6 °F 27.1 °F 33.8 °F 93% 29.63 in 3.0 mi WNW 12.7 mph 20.7 mph 0.03 in Rain Rain
8:10 AM 35.6 °F 25.5 °F 33.8 °F 93% 29.63 in 4.0 mi WNW 17.3 mph 21.9 mph 0.04 in Rain Rain
8:18 AM 35.6 °F 25.2 °F 32.0 °F 87% 29.63 in 5.0 mi WNW 18.4 mph - 0.05 in Rain Rain
8:53 AM 37.0 °F 27.4 °F 33.1 °F 86% 29.67 in 8.0 mi WNW 17.3 mph - 0.08 in Rain Light Rain
9:18 AM 37.4 °F 29.3 °F 33.8 °F 87% 29.65 in 10.0 mi WNW 12.7 mph - 0.02 in Rain Light Rain
9:21 AM 37.4 °F 28.9 °F 33.8 °F 87% 29.65 in 10.0 mi WNW 13.8 mph - 0.02 in Rain Light Rain
9:53 AM 37.9 °F 27.9 °F 32.0 °F 79% 29.68 in 10.0 mi WNW 19.6 mph 26.5 mph 0.02 in   Mostly Cloudy
10:24 AM 35.6 °F 24.2 °F 30.2 °F 81% 29.65 in 5.0 mi West 21.9 mph 32.2 mph 0.00 in Snow Light Snow
10:34 AM 35.6 °F 25.9 °F 30.2 °F 81% 29.65 in 2.0 mi West 16.1 mph 26.5 mph 0.01 in Snow Light Snow
10:44 AM 37.4 °F 27.5 °F 30.2 °F 75% 29.66 in 9.0 mi West 18.4 mph 26.5 mph 0.01 in   Mostly Cloudy
10:53 AM 37.9 °F 26.8 °F 28.9 °F 70% 29.69 in 10.0 mi West 24.2 mph 33.4 mph 0.01 in   Scattered Clouds
11:53 AM 37.0 °F 25.9 °F 28.9 °F 73% 29.70 in 10.0 mi West 23.0 mph 35.7 mph N/A   Overcast
12:53 PM 37.9 °F 27.1 °F 26.1 °F 62% 29.70 in 10.0 mi West 23.0 mph 35.7 mph N/A   Mostly Cloudy
1:53 PM 37.9 °F 27.6 °F 25.0 °F 60% 29.69 in 10.0 mi West 20.7 mph 33.4 mph 0.00 in   Overcast
2:53 PM 36.0 °F 25.3 °F 23.0 °F 59% 29.69 in 9.0 mi West 19.6 mph 32.2 mph 0.00 in   Mostly Cloudy
3:53 PM 35.1 °F 23.3 °F 21.9 °F 59% 29.68 in 10.0 mi West 23.0 mph 35.7 mph 0.00 in   Overcast
4:49 PM 35.6 °F 24.0 °F 24.8 °F 65% 29.65 in 1.8 mi West 23.0 mph 33.4 mph 0.00 in Snow Light Snow
4:53 PM 33.1 °F 21.9 °F 27.0 °F 78% 29.68 in 0.8 mi West 18.4 mph 33.4 mph 0.01 in Snow Light Snow
5:06 PM 32.0 °F 21.2 °F 28.4 °F 87% 29.65 in 0.5 mi West 16.1 mph 26.5 mph 0.00 in Fog , Snow Snow
5:13 PM 32.0 °F 20.5 °F 28.4 °F 87% 29.65 in 2.0 mi West 18.4 mph 27.6 mph 0.00 in Snow Light Snow
5:17 PM 33.8 °F 23.5 °F 28.4 °F 81% 29.65 in 4.0 mi West 16.1 mph 27.6 mph 0.00 in Snow Light Snow
5:30 PM 32.0 °F 20.5 °F 28.4 °F 87% 29.65 in 1.2 mi West 18.4 mph 26.5 mph 0.00 in Snow Light Snow
5:35 PM 32.0 °F 21.6 °F 28.4 °F 87% 29.65 in 0.2 mi West 15.0 mph 26.5 mph 0.00 in Fog , Snow Heavy Snow
5:44 PM 32.0 °F 20.5 °F 28.4 °F 87% 29.65 in 0.2 mi West 18.4 mph 24.2 mph 0.02 in Fog , Snow Snow
5:48 PM 32.0 °F 22.1 °F 28.4 °F 87% 29.64 in 0.5 mi WSW 13.8 mph 24.2 mph 0.02 in Fog , Snow Light Snow
5:53 PM 32.0 °F 23.6 °F 28.0 °F 85% 29.68 in 5.0 mi WSW 10.4 mph - 0.02 in Snow Light Snow
6:08 PM 32.0 °F 24.2 °F 28.4 °F 87% 29.64 in 4.0 mi WSW 9.2 mph - 0.00 in Snow Light Snow
6:53 PM 33.1 °F 23.4 °F 27.0 °F 78% 29.68 in 10.0 mi West 13.8 mph - 0.00 in   Mostly Cloudy
7:42 PM 32.0 °F 21.6 °F 28.4 °F 87% 29.64 in 1.8 mi WSW 15.0 mph 25.3 mph 0.00 in Snow Light Snow
7:45 PM 32.0 °F 22.5 °F 28.4 °F 87% 29.64 in 0.8 mi WSW 12.7 mph 25.3 mph 0.00 in Snow Light Snow
7:53 PM 32.0 °F 23.0 °F 28.9 °F 88% 29.67 in 0.5 mi WSW 11.5 mph 19.6 mph 0.01 in Fog , Snow Snow
7:58 PM 32.0 °F 23.0 °F 28.4 °F 87% 29.64 in 1.0 mi WSW 11.5 mph 19.6 mph 0.00 in Snow Light Snow
8:03 PM 32.0 °F 22.5 °F 28.4 °F 87% 29.63 in 2.0 mi WSW 12.7 mph 20.7 mph 0.00 in Snow Light Snow
8:15 PM 32.0 °F 24.8 °F 28.4 °F 87% 29.63 in 4.0 mi SW 8.1 mph - 0.00 in Snow Light Snow
8:20 PM 32.0 °F 24.8 °F 28.4 °F 87% 29.63 in 3.0 mi WSW 8.1 mph - 0.01 in Snow Light Snow
8:37 PM 32.0 °F 25.6 °F 28.4 °F 87% 29.62 in 2.0 mi SW 6.9 mph - 0.01 in Snow Light Snow
8:51 PM 30.2 °F 21.9 °F 28.4 °F 93% 29.62 in 5.0 mi SSW 9.2 mph - 0.01 in Snow Light Snow
8:53 PM 30.9 °F 22.8 °F 28.9 °F 92% 29.65 in 5.0 mi SSW 9.2 mph - 0.01 in Snow Light Snow
9:20 PM 30.2 °F 23.4 °F 28.4 °F 93% 29.60 in 1.8 mi SSW 6.9 mph - 0.00 in Snow Light Snow
9:30 PM 30.2 °F 22.6 °F 28.4 °F 93% 29.60 in 0.5 mi SW 8.1 mph - 0.02 in Fog , Snow Snow
9:45 PM 30.2 °F 21.3 °F 28.4 °F 93% 29.59 in 1.0 mi SW 10.4 mph - 0.03 in Snow Light Snow
9:50 PM 30.2 °F 21.3 °F 28.4 °F 93% 29.59 in 0.8 mi SW 10.4 mph - 0.03 in Snow Light Snow
9:53 PM 30.9 °F 22.8 °F 28.0 °F 89% 29.63 in 0.8 mi SW 9.2 mph - 0.04 in Snow Light Snow
10:14 PM 30.2 °F 23.4 °F 28.4 °F 93% 29.59 in 1.5 mi SW 6.9 mph - 0.01 in Snow Light Snow
10:53 PM 30.9 °F 22.2 °F 28.9 °F 92% 29.60 in 1.2 mi SW 10.4 mph - 0.03 in Snow Light Snow
11:04 PM 32.0 °F 24.8 °F 28.4 °F 87% 29.57 in 3.0 mi WSW 8.1 mph - 0.00 in Snow Light Snow
11:25 PM 33.8 °F 29.6 °F 30.2 °F 87% 29.56 in 8.0 mi West 4.6 mph - 0.00 in Snow Light Snow
11:48 PM 35.6 °F 25.9 °F 32.0 °F 87% 29.56 in 8.0 mi NW 16.1 mph 24.2 mph 0.01 in Rain Light Rain
11:53 PM 36.0 °F 25.6 °F 32.0 °F 86% 29.60 in 6.0 mi NW 18.4 mph - 0.01 in Rain Light Rain